TimeGMT,TemperatureF,Dew PointF,Humidity,Sea Level PressureIn,VisibilityMPH,Wind Direction,Wind SpeedMPH,Gust SpeedMPH,PrecipitationIn,Events,Conditions,WindDirDegrees,DateUTC
12:00 AM,34,32,90,29.76,9,ENE,6.7,,,,Mostly Cloudy,70,2013-01-23 00:00:00
12:00 AM,33.8,32.0,93,29.74,6.2,ENE,8.1,-,N/A,,Mostly Cloudy,60,2013-01-23 00:00:00
12:30 AM,33.8,32.0,93,29.74,6.2,East,8.1,-,N/A,,Mostly Cloudy,80,2013-01-23 00:30:00
1:00 AM,33.8,32.0,93,29.74,6.2,ENE,8.1,-,N/A,,Mostly Cloudy,70,2013-01-23 01:00:00
1:30 AM,33.8,32.0,93,29.74,6.2,East,6.9,-,N/A,,Mostly Cloudy,80,2013-01-23 01:30:00
2:00 AM,33.8,32.0,93,29.74,6.2,ENE,4.6,-,N/A,,Mostly Cloudy,70,2013-01-23 02:00:00
2:30 AM,33.8,32.0,93,29.74,6.2,ENE,4.6,-,N/A,,Mostly Cloudy,60,2013-01-23 02:30:00
3:00 AM,32.0,30.2,93,29.74,6.2,Calm,Calm,-,N/A,,Mostly Cloudy,0,2013-01-23 03:00:00
3:30 AM,30.2,28.4,93,29.74,6.2,North,1.2,-,N/A,,Mostly Cloudy,360,2013-01-23 03:30:00
4:00 AM,30.2,30.2,100,29.74,6.2,North,1.2,-,N/A,,Mostly Cloudy,360,2013-01-23 04:00:00
4:30 AM,33.8,32.0,93,29.74,6.2,ESE,6.9,-,N/A,,Mostly Cloudy,120,2013-01-23 04:30:00
5:00 AM,35.6,33.8,93,29.74,6.2,SE,6.9,-,N/A,,Partly Cloudy,140,2013-01-23 05:00:00
5:30 AM,33.8,32.0,93,29.74,6.2,SE,6.9,-,N/A,,Partly Cloudy,140,2013-01-23 05:30:00
6:00 AM,35,32,83,29.76,11,SSE,6.7,,,,Partly Cloudy,160,2013-01-23 06:00:00
6:00 AM,35.6,32.0,87,29.74,6.2,SSE,5.8,-,N/A,,Mostly Cloudy,160,2013-01-23 06:00:00
6:30 AM,33.8,32.0,93,29.74,6.2,SSE,5.8,-,N/A,,Mostly Cloudy,150,2013-01-23 06:30:00
7:00 AM,33.8,32.0,93,29.74,6.2,Variable,3.5,-,N/A,,Mostly Cloudy,0,2013-01-23 07:00:00
7:30 AM,33.8,32.0,93,29.74,6.2,SSW,4.6,-,N/A,,Mostly Cloudy,200,2013-01-23 07:30:00
8:00 AM,35.6,32.0,87,29.74,6.2,South,4.6,-,N/A,,Mostly Cloudy,190,2013-01-23 08:00:00
8:30 AM,35.6,32.0,87,29.74,6.2,SSE,4.6,-,N/A,,Mostly Cloudy,150,2013-01-23 08:30:00
9:00 AM,35.6,32.0,87,29.74,6.2,SE,4.6,-,N/A,,Mostly Cloudy,130,2013-01-23 09:00:00
9:30 AM,35.6,32.0,87,29.74,6.2,ESE,9.2,-,N/A,Rain,Light Rain,120,2013-01-23 09:30:00
10:00 AM,37.4,32.0,81,29.74,6.2,ESE,13.8,-,N/A,,Mostly Cloudy,110,2013-01-23 10:00:00
10:30 AM,37.4,32.0,81,29.74,6.2,ESE,12.7,-,N/A,,Mostly Cloudy,110,2013-01-23 10:30:00
11:00 AM,37.4,32.0,81,29.74,6.2,ESE,15.0,-,N/A,,Mostly Cloudy,120,2013-01-23 11:00:00
11:30 AM,39.2,32.0,75,29.74,6.2,ESE,15.0,-,N/A,,Mostly Cloudy,110,2013-01-23 11:30:00
12:00 PM,39,33,70,29.75,12,ESE,13.4,,,,Partly Cloudy,110,2013-01-23 12:00:00
12:00 PM,39.2,32.0,75,29.74,6.2,ESE,15.0,-,N/A,,Mostly Cloudy,110,2013-01-23 12:00:00
12:30 PM,39.2,32.0,75,29.74,6.2,ESE,15.0,-,N/A,,Mostly Cloudy,110,2013-01-23 12:30:00
1:00 PM,39.2,32.0,75,29.74,6.2,ESE,12.7,-,N/A,,Mostly Cloudy,120,2013-01-23 13:00:00
1:30 PM,39.2,32.0,75,29.74,6.2,ESE,12.7,-,N/A,,Mostly Cloudy,110,2013-01-23 13:30:00
2:00 PM,37.4,32.0,81,29.74,6.2,ESE,11.5,-,N/A,,Mostly Cloudy,120,2013-01-23 14:00:00
2:30 PM,39.2,32.0,75,29.71,6.2,ESE,10.4,-,N/A,,Mostly Cloudy,110,2013-01-23 14:30:00
3:00 PM,37.4,32.0,81,29.71,6.2,East,8.1,-,N/A,,Mostly Cloudy,90,2013-01-23 15:00:00
3:30 PM,37.4,32.0,81,29.71,6.2,East,9.2,-,N/A,,Mostly Cloudy,80,2013-01-23 15:30:00
4:00 PM,37.4,32.0,81,29.71,6.2,ENE,9.2,-,N/A,,Mostly Cloudy,70,2013-01-23 16:00:00
4:30 PM,37.4,32.0,81,29.71,6.2,East,8.1,-,N/A,,Mostly Cloudy,80,2013-01-23 16:30:00
5:00 PM,35.6,32.0,87,29.71,6.2,ENE,5.8,-,N/A,,Mostly Cloudy,70,2013-01-23 17:00:00
5:30 PM,35.6,32.0,87,29.74,6.2,East,6.9,-,N/A,,Mostly Cloudy,100,2013-01-23 17:30:00
6:00 PM,36,32,80,29.77,12,ESE,6.7,,,,Partly Cloudy,110,2013-01-23 18:00:00
6:00 PM,35.6,32.0,87,29.74,6.2,ESE,4.6,-,N/A,,Mostly Cloudy,110,2013-01-23 18:00:00
6:30 PM,35.6,32.0,87,29.74,6.2,ESE,5.8,-,N/A,,Mostly Cloudy,110,2013-01-23 18:30:00
7:00 PM,35.6,32.0,87,29.74,6.2,ENE,5.8,-,N/A,,Light Small Hail Showers,70,2013-01-23 19:00:00
7:30 PM,35.6,33.8,93,29.77,6.2,East,8.1,-,N/A,Rain,Light Rain Showers,90,2013-01-23 19:30:00
8:00 PM,37.4,32.0,81,29.77,6.2,ENE,8.1,-,N/A,,Mostly Cloudy,70,2013-01-23 20:00:00
8:30 PM,35.6,32.0,87,29.77,6.2,ENE,8.1,-,N/A,,Mostly Cloudy,60,2013-01-23 20:30:00
9:00 PM,35.6,32.0,87,29.80,6.2,NE,8.1,-,N/A,,Mostly Cloudy,40,2013-01-23 21:00:00
9:30 PM,35.6,32.0,87,29.80,6.2,NE,6.9,-,N/A,,Mostly Cloudy,50,2013-01-23 21:30:00
10:00 PM,35.6,32.0,87,29.80,6.2,ENE,6.9,-,N/A,,Mostly Cloudy,60,2013-01-23 22:00:00
10:30 PM,35.6,32.0,87,29.83,6.2,ENE,6.9,-,N/A,,Mostly Cloudy,70,2013-01-23 22:30:00
11:00 PM,35.6,32.0,87,29.83,6.2,ENE,5.8,-,N/A,,Mostly Cloudy,70,2013-01-23 23:00:00
11:30 PM,35.6,32.0,87,29.83,6.2,ENE,10.4,-,N/A,,Mostly Cloudy,60,2013-01-23 23:30:00